Weather History for Sheridan, WY

Change the Weather History Date:

Thursday, November 22, 2012

  Actual Average Record
Temperature  
Mean Temperature 30 °F 29 °F  
Max Temperature 44 °F 42 °F 74 °F (1954)
Min Temperature 16 °F 17 °F -12 °F (1985)
Degree Days  
Heating Degree Days 35 36  
Month to date heating degree days 617 671  
Since 1 July heating degree days 1391 1579  
Cooling Degree Days 0 0  
Month to date cooling degree days 0 0  
Year to date cooling degree days 664 419  
Moisture  
Dew Point 21 °F    
Average Humidity 57    
Maximum Humidity 84    
Minimum Humidity 29    
Precipitation  
Precipitation 0.01 in 0.02 in 0.23 in (1992)
Month to date precipitation 0.43 0.54  
Year to date precipitation 8.37 13.43  
Sea Level Pressure  
Sea Level Pressure 30.26 in    
Wind  
Wind Speed 11 mph (WNW)    
Max Wind Speed 38 mph    
Max Gust Speed 45 mph    
Visibility 9 miles    
Events Snow    
T = Trace of Precipitation, MM = Missing Value Source: NWS Daily Summary

Daily Weather History Graph

Daily Weather History Graph

Search for Another Location

Airport:

Trip Planner

Search our weather history database for the weather conditions in past years. The results will help you decide how hot, cold, wet, or windy it might be!

Date:

Astronomy

Nov. 22, 2012 Rise Set
Actual Time 7:14 AM MST 4:33 PM MST
Civil Twilight 6:42 AM MST 5:05 PM MST
Nautical Twilight 6:06 AM MST 5:41 PM MST
Astronomical Twilight 5:31 AM MST 6:16 PM MST
Moon 1:31 PM MST (11/22) 1:24 AM MST (11/22)
Length of Visible Light 10h 22m
Length of Day
9h 18m
Waxing Gibbous, 72% of the Moon is Illuminated
Nov 22
Waxing Gibbous
Nov 28
Full
Dec 6
Last Quarter
Dec 13
New
Dec 19
First Quarter

Hourly Weather History & Observations

Time (MST) Temp. Windchill Dew Point Humidity Pressure Visibility Wind Dir Wind Speed Gust Speed Precip Events Conditions
12:53 AM 34.0 °F 21.5 °F 32.0 °F 92% 29.96 in 9.0 mi WNW 24.2 mph 34.5 mph 0.00 in Snow Light Snow
1:15 AM 33.8 °F 20.8 °F 32.0 °F 93% 29.98 in 2.0 mi WNW 26.5 mph 34.5 mph 0.00 in Snow Light Snow
1:22 AM 33.8 °F 21.6 °F 32.0 °F 93% 29.98 in 1.2 mi WNW 23.0 mph 34.5 mph 0.00 in Snow Light Snow
1:30 AM 33.8 °F 23.2 °F 32.0 °F 93% 29.98 in 1.8 mi WNW 17.3 mph 28.8 mph 0.01 in Snow Light Snow
1:33 AM 33.8 °F 23.2 °F 30.2 °F 87% 29.98 in 3.0 mi West 17.3 mph 26.5 mph 0.01 in Snow Light Snow
1:42 AM 33.8 °F 23.2 °F 30.2 °F 87% 29.97 in 9.0 mi West 17.3 mph 25.3 mph 0.01 in   Overcast
1:53 AM 34.0 °F 26.0 °F 30.9 °F 89% 29.95 in 10.0 mi NW 10.4 mph - 0.01 in   Overcast
2:53 AM 35.1 °F 26.9 °F 27.0 °F 72% 29.97 in 10.0 mi NW 11.5 mph - N/A   Overcast
3:53 AM 32.0 °F 26.4 °F 25.0 °F 75% 30.02 in 10.0 mi NW 5.8 mph - N/A   Clear
4:53 AM 27.0 °F 18.7 °F 21.9 °F 81% 30.07 in 10.0 mi West 8.1 mph - N/A   Clear
5:53 AM 24.1 °F 18.2 °F 19.0 °F 81% 30.12 in 10.0 mi West 4.6 mph - N/A   Clear
6:53 AM 23.0 °F 17.0 °F 17.1 °F 78% 30.16 in 10.0 mi South 4.6 mph - N/A   Clear
7:53 AM 30.0 °F 24.1 °F 19.9 °F 66% 30.20 in 10.0 mi NW 5.8 mph - N/A   Mostly Cloudy
8:53 AM 32.0 °F 24.8 °F 21.0 °F 64% 30.22 in 10.0 mi WNW 8.1 mph - N/A   Clear
9:53 AM 39.0 °F 33.4 °F 26.1 °F 60% 30.24 in 10.0 mi North 8.1 mph - N/A   Clear
10:53 AM 37.9 °F 27.9 °F 19.0 °F 47% 30.28 in 10.0 mi NNW 19.6 mph 27.6 mph N/A   Partly Cloudy
11:53 AM 39.9 °F 29.2 °F 15.1 °F 36% 30.30 in 10.0 mi NW 25.3 mph 39.1 mph N/A   Mostly Cloudy
12:53 PM 43.0 °F 32.2 °F 14.0 °F 31% 30.30 in 10.0 mi NW 32.2 mph 36.8 mph N/A   Mostly Cloudy
1:53 PM 42.1 °F 31.1 °F 12.0 °F 29% 30.33 in 10.0 mi NNW 31.1 mph 38.0 mph N/A   Clear
2:53 PM 39.9 °F 30.5 °F 12.9 °F 33% 30.35 in 10.0 mi NW 19.6 mph 33.4 mph N/A   Clear
3:53 PM 37.0 °F 28.5 °F 17.1 °F 44% 30.42 in 10.0 mi NNW 13.8 mph - N/A   Clear
4:53 PM 32.0 °F 24.2 °F 18.0 °F 56% 30.48 in 10.0 mi WNW 9.2 mph - N/A   Clear
5:53 PM 28.0 °F 17.5 °F 19.0 °F 69% 30.52 in 10.0 mi WNW 12.7 mph - N/A   Clear
6:53 PM 27.0 °F - 19.9 °F 75% 30.58 in 10.0 mi Calm Calm - N/A   Clear
7:53 PM 24.1 °F 19.7 °F 19.0 °F 81% 30.59 in 10.0 mi South 3.5 mph - N/A   Clear
8:53 PM 19.0 °F 12.3 °F 16.0 °F 88% 30.60 in 10.0 mi NNW 4.6 mph - N/A   Clear
9:53 PM 19.0 °F 13.9 °F 16.0 °F 88% 30.58 in 10.0 mi SSW 3.5 mph - N/A   Clear
10:53 PM 19.9 °F 14.9 °F 16.0 °F 85% 30.57 in 10.0 mi South 3.5 mph - N/A   Clear
11:53 PM 16.0 °F - 12.9 °F 88% 30.59 in 10.0 mi Calm Calm - N/A   Clear